Location: Bremen
(53.0793°N, 8.8017°E)
Time: 23:27:06
(UTC+02:00)

Vanguard 2 Rocket - Pass Details

Date: 17 April 2024
Orbit: 556 x 3304 km, 32.9° (Epoch: 20 May)

Event Time Altitude Azimuth Distance (km) Brightness Sun altitude
Rises 03:56:04 0° 264° (W) 7,292 11.1 -18.6°
Reaches altitude 10° 04:01:57 10° 255° (WSW) 6,214 10.6 -18.0°
Maximum altitude 04:16:58 30° 205° (SSW) 4,123 9.7 -16.5°
Drops below altitude 10° 04:28:15 10° 151° (SSE) 4,632 10.4 -15.3°
Sets 04:31:53 0° 141° (SE) 5,256 10.8 -14.9°
